Location: T�chigga el Be�da
(16.4766°N, 9.3887°W)
Time: 06:17:36
(UTC+00:00)

CRYOSAT 2 - Pass Details

Date: 27 February 2020
Orbit: 712 x 725 km, 92.0° (Epoch: 07 April)

Event Time Altitude Azimuth Distance (km) Brightness Sun altitude
Rises 19:14:24 0° 169° (S) 3,122 7.6 -8.1°
Reaches altitude 10° 19:16:42 10° 167° (SSE) 2,204 6.8 -8.6°
Maximum altitude 19:21:32 70° 84° (E) 769 4.3 -9.8°
Drops below altitude 10° 19:26:25 10° 1° (N) 2,212 6.8 -10.9°
Sets 19:28:42 0° 359° (N) 3,134 7.6 -11.5°
